EW1175 Weather Reports


Display with metric or nautical units.
time (UTC)temp
F
wind
direction
speed
MPH
gust
MPH
rain 1hr
in
rain 24hr
in
rain mn
in
humidity
%
barometer
mb
20260503173022 73 140 0.0 0.0 0.00 0.00 0.00 40 1016.6
20260503171519 74 120 0.0 0.0 0.00 0.00 0.00 44 1016.7
20260503081532 56 155 0.0 0.0 0.00 0.00 0.00 71 1016.9
20260503071511 58 155 0.0 0.0 0.00 0.00 0.00 66 1016.7
20260503054502 61 111 0.0 0.0 0.00 0.00 0.00 59 1016.2
20260503053002 61 129 0.0 1.0 0.00 0.00 0.00 68 1016.3
20260503051559 62 129 0.0 0.0 0.00 0.00 0.00 66 1016.3
20260503050058 63 130 0.0 0.0 0.00 0.00 0.00 60 1016.2
20260503044557 64 129 0.0 1.0 0.00 0.00 0.00 62 1016.1
20260503043059 64 130 0.0 0.0 0.00 0.00 0.00 59 1016.1
20260503041556 65 129 0.0 0.0 0.00 0.00 0.00 58 1016.0
20260503040056 66 130 0.0 0.0 0.00 0.00 0.00 55 1015.8
20260503034555 68 130 0.0 0.0 0.00 0.00 0.00 52 1015.6
20260503033154 68 129 0.0 1.0 0.00 0.00 0.00 50 1015.4
20260503031554 70 130 0.0 0.0 0.00 0.00 0.00 47 1015.4
20260503030053 71 129 0.0 1.0 0.00 0.00 0.00 45 1015.3
20260503024552 71 129 0.0 0.0 0.00 0.00 0.00 45 1015.2
20260503023055 72 131 0.0 0.0 0.00 0.00 0.00 44 1015.3
20260503021552 72 131 0.0 5.0 0.00 0.00 0.00 42 1015.4
20260503020049 73 121 0.0 2.0 0.00 0.00 0.00 42 1015.4
20260503014558 73 113 0.0 1.0 0.00 0.00 0.00 42 1015.6
20260503013049 74 103 0.0 3.0 0.00 0.00 0.00 42 1015.7
20260503011545 74 113 0.0 2.0 0.00 0.00 0.00 40 1015.8
20260503010049 74 110 0.0 5.0 0.00 0.00 0.00 40 1015.8
20260503004546 74 117 0.0 2.0 0.00 0.00 0.00 42 1015.9
20260503003046 74 105 0.0 5.0 0.00 0.00 0.00 42 1016.0
20260503001546 75 120 0.0 4.0 0.00 0.00 0.00 41 1016.1
20260503000042 74 113 0.0 2.0 0.00 0.00 0.00 40 1016.2
20260502234548 74 127 0.0 3.0 0.00 0.00 0.00 40 1016.4
20260502233040 75 98 0.0 3.0 0.00 0.00 0.00 41 1016.5
20260502231533 75 120 0.0 7.0 0.00 0.00 0.00 40 1016.7
20260502230034 75 101 0.0 3.0 0.00 0.00 0.00 40 1016.7
20260502224528 75 122 0.0 2.0 0.00 0.00 0.00 42 1017.0
20260502223037 76 118 0.0 3.0 0.00 0.00 0.00 42 1017.3
20260502221524 76 128 0.0 5.0 0.00 0.00 0.00 41 1017.4
20260502220024 76 98 0.0 2.0 0.00 0.00 0.00 40 1017.5
20260502214519 76 92 0.0 6.0 0.00 0.00 0.00 43 1017.7
20260502213018 76 117 0.0 2.0 0.00 0.00 0.00 44 1017.9
20260502211516 75 119 1.0 3.0 0.00 0.00 0.00 44 1017.9
20260502210014 76 122 0.0 1.0 0.00 0.00 0.00 47 1018.1
20260502204513 76 108 0.0 2.0 0.00 0.00 0.00 48 1018.2
20260502203010 75 113 0.0 2.0 0.00 0.00 0.00 49 1018.4
20260502201510 75 133 0.0 2.0 0.00 0.00 0.00 50 1018.5
20260502200004 72 142 0.0 3.0 0.00 0.00 0.00 54 1018.8
20260502194507 72 108 0.0 3.0 0.00 0.00 0.00 53 1018.9
20260502193100 71 103 0.0 2.0 0.00 0.00 0.00 57 1019.0
20260502191607 70 136 0.0 2.0 0.00 0.00 0.00 58 1019.2
20260502190058 69 143 0.0 2.0 0.00 0.00 0.00 60 1019.3
20260502184602 69 124 0.0 3.0 0.00 0.00 0.00 59 1019.2
20260502183056 70 141 0.0 3.0 0.00 0.00 0.00 59 1019.4
20260502181555 70 89 0.0 0.0 0.00 0.00 0.00 58 1019.3